Torna al catalogo

STARLINK-31383

AttivoComunicazioniVLEO
NORAD 58936·PAYLOAD·🇺🇸 United States

Lanciato Feb 10, 2024 da Vandenberg Space Force Base

Loading…

Prossimi Passaggi (prossime 24 ore)

TLE

AggiornatoSource: CelesTrak SupGP

Epoca: Sep 14, 2026, 21:25 UTC

1 58936C 24027F   26257.89284722 -.00064750  00000+0 -19125-2 0  2570
2 58936  53.1582 149.6356 0001242  91.5618 228.5993 15.34431717    15

Traccia STARLINK-31383 in tempo reale con AllMySat

Download on the App Store